Location: Holyhead Bay
(53.3667°N, 4.6667°W)
Time: 18:09:00
(UTC+00:00)

Cosmos 1933 Rocket - Visible Passes

Search period start: 16 April 2021 00:00
Search period end: 26 April 2021 00:00
Orbit: 607 x 630 km, 82.5° (Epoch: 15 April)

Date Brightness Start Highest point End Pass type
(mag) Time Alt. Az. Time Alt. Az. Time Alt. Az.
16 Apr 3.9 00:59:40 10° NNW 01:03:26 61° NW 01:03:26 61° NW visible
16 Apr 5.9 02:40:08 10° WNW 02:40:34 10° WNW 02:40:34 10° WNW visible
16 Apr 5.1 23:39:21 10° N 23:43:04 26° ENE 23:43:18 26° ENE visible
17 Apr 4.4 01:16:56 10° NNW 01:20:26 41° WNW 01:20:26 41° WNW visible
17 Apr 4.4 23:56:12 10° N 00:00:18 40° ENE 00:00:18 40° ENE visible
18 Apr 5.0 01:34:22 10° NNW 01:37:26 26° WNW 01:37:26 26° WNW visible
18 Apr 6.0 22:37:23 10° NE 22:38:48 11° NE 22:40:11 10° ENE visible
19 Apr 3.8 00:13:12 10° N 00:17:19 65° NE 00:17:19 65° NE visible
19 Apr 5.5 01:52:06 10° NW 01:54:27 17° WNW 01:54:27 17° WNW visible
19 Apr 5.6 22:53:21 10° NNE 22:56:19 17° ENE 22:57:12 16° ENE visible
20 Apr 3.7 00:30:20 10° NNW 00:34:20 68° NW 00:34:20 68° NW visible
20 Apr 6.0 02:11:05 10° WNW 02:11:28 10° WNW 02:11:28 10° WNW visible
20 Apr 5.0 23:10:00 10° N 23:13:43 26° ENE 23:14:14 26° ENE visible
21 Apr 4.3 00:47:36 10° NNW 00:51:22 42° WNW 00:51:22 42° WNW visible
21 Apr 4.3 23:26:51 10° N 23:31:02 41° ENE 23:31:16 41° E visible
22 Apr 5.0 01:05:03 10° NNW 01:08:24 26° W 01:08:24 26° W visible
22 Apr 6.0 22:07:58 10° NE 22:09:29 12° NE 22:10:59 10° ENE visible
22 Apr 3.6 23:43:51 10° N 23:48:15 69° ENE 23:48:19 69° E visible
23 Apr 5.5 01:22:48 10° NW 01:25:27 17° W 01:25:27 17° W visible
23 Apr 5.5 22:23:59 10° NNE 22:26:58 18° ENE 22:28:14 16° E visible
24 Apr 3.5 00:00:59 10° NNW 00:05:22 72° W 00:05:22 72° W visible
24 Apr 4.9 22:40:37 10° N 22:44:22 27° ENE 22:45:18 25° E visible
25 Apr 4.2 00:18:15 10° NNW 00:22:24 42° W 00:22:26 42° W visible
25 Apr 4.2 22:57:29 10° N 23:01:40 42° ENE 23:02:22 39° E visible
